EW5836 Weather Reports


Display with metric or nautical units.
time (UTC)temp
F
wind
direction
speed
MPH
gust
MPH
rain 1hr
in
rain 24hr
in
rain mn
in
humidity
%
barometer
mb
20260509185051 66 323 4.0 8.0 0.00 0.00 0.00 68 1014.9
20260509184555 66 317 3.0 8.0 0.00 0.00 0.00 68 1014.9
20260509184045 67 314 4.0 6.0 0.00 0.00 0.00 68 1014.9
20260509183548 67 327 3.0 6.0 0.00 0.00 0.00 68 1014.9
20260509183040 66 309 3.0 7.0 0.00 0.00 0.00 68 1014.8
20260509182545 66 321 3.0 6.0 0.00 0.00 0.00 69 1014.9
20260509182038 66 315 0.0 0.0 0.00 0.00 0.00 70 1014.9
20260509181543 66 315 0.0 0.0 0.00 0.00 0.00 68 1014.8
20260509181058 66 318 0.0 0.0 0.00 0.00 0.00 67 1014.9
20260509180541 67 319 0.0 0.0 0.00 0.00 0.00 66 1015.0
20260509180034 67 135 0.0 0.0 0.00 0.00 0.00 66 1015.0
20260509175539 68 135 0.0 0.0 0.00 0.00 0.00 65 1014.9
20260509175059 68 135 0.0 0.0 0.00 0.00 0.00 64 1014.9
20260509174544 69 135 0.0 0.0 0.00 0.00 0.00 63 1015.0
20260509174102 70 135 0.0 0.0 0.00 0.00 0.00 62 1015.1
20260509173537 71 135 0.0 0.0 0.00 0.00 0.00 61 1015.1
20260509173043 72 135 0.0 0.0 0.00 0.00 0.00 60 1015.0
20260509172537 73 135 0.0 0.0 0.00 0.00 0.00 59 1015.0
20260509172049 73 135 0.0 0.0 0.00 0.00 0.00 59 1014.9
20260509171556 73 135 0.0 0.0 0.00 0.00 0.00 60 1014.9
20260509171047 73 135 0.0 0.0 0.00 0.00 0.00 59 1014.9
20260509170544 73 135 0.0 0.0 0.00 0.00 0.00 59 1014.8
20260509170057 73 135 0.0 0.0 0.00 0.00 0.00 51 1014.8
20260509165542 73 135 0.0 0.0 0.00 0.00 0.00 56 1014.8
20260509165052 73 135 0.0 0.0 0.00 0.00 0.00 52 1014.8
20260509164543 73 135 0.0 0.0 0.00 0.00 0.00 51 1014.9
20260509164033 73 135 0.0 0.0 0.00 0.00 0.00 53 1014.9
20260509163538 73 135 0.0 0.0 0.00 0.00 0.00 53 1015.0
20260509163119 72 135 0.0 0.0 0.00 0.00 0.00 52 1015.0
20260509162532 72 135 0.0 0.0 0.00 0.00 0.00 52 1015.1
20260509162041 72 135 0.0 0.0 0.00 0.00 0.00 52 1015.2
20260509161547 72 135 0.0 0.0 0.00 0.00 0.00 50 1015.2
20260509161057 72 135 0.0 0.0 0.00 0.00 0.00 50 1015.3
20260509160536 73 135 0.0 2.0 0.00 0.00 0.00 52 1015.3
20260509160107 73 135 0.0 2.0 0.00 0.00 0.00 50 1015.3
20260509155547 74 135 0.0 0.0 0.00 0.00 0.00 51 1015.4
20260509155035 73 135 0.0 0.0 0.00 0.00 0.00 51 1015.4
20260509154540 73 135 0.0 0.0 0.00 0.00 0.00 52 1015.5
20260509154120 73 135 0.0 0.0 0.00 0.00 0.00 52 1015.5
20260509153537 73 135 0.0 0.0 0.00 0.00 0.00 53 1015.5
20260509153044 73 135 0.0 0.0 0.00 0.00 0.00 51 1015.6
20260509152547 73 135 0.0 0.0 0.00 0.00 0.00 51 1015.8
20260509152034 72 135 0.0 0.0 0.00 0.00 0.00 53 1015.9
20260509151541 72 135 0.0 1.0 0.00 0.00 0.00 54 1015.9
20260509151058 72 135 0.0 1.0 0.00 0.00 0.00 52 1015.9
20260509150533 73 133 0.0 0.0 0.00 0.00 0.00 55 1015.9
20260509150046 73 133 0.0 0.0 0.00 0.00 0.00 54 1015.9
20260509145552 73 129 0.0 0.0 0.00 0.00 0.00 53 1015.9
20260509145039 73 128 0.0 0.0 0.00 0.00 0.00 54 1015.9
20260509144546 73 129 0.0 0.0 0.00 0.00 0.00 53 1015.9
20260509144042 72 129 0.0 0.0 0.00 0.00 0.00 55 1015.9
20260509143547 72 128 0.0 0.0 0.00 0.00 0.00 54 1015.9
20260509143034 72 128 0.0 0.0 0.00 0.00 0.00 53 1015.9
20260509142539 72 128 0.0 0.0 0.00 0.00 0.00 53 1015.9
20260509142057 72 147 0.0 2.0 0.00 0.00 0.00 55 1015.9
20260509141534 72 161 0.0 5.0 0.00 0.00 0.00 53 1016.0
20260509141111 72 140 3.0 5.0 0.00 0.00 0.00 52 1016.1
20260509140533 72 183 0.0 6.0 0.00 0.00 0.00 54 1016.1
20260509140042 72 178 1.0 7.0 0.00 0.00 0.00 55 1016.2
20260509135606 73 141 4.0 7.0 0.00 0.00 0.00 54 1016.2
20260509135033 73 124 0.0 3.0 0.00 0.00 0.00 56 1016.3
20260509134538 73 113 0.0 6.0 0.00 0.00 0.00 55 1016.4
20260509134117 73 97 1.0 6.0 0.00 0.00 0.00 54 1016.4
20260509133531 72 81 2.0 6.0 0.00 0.00 0.00 56 1016.3
20260509133039 72 119 2.0 7.0 0.00 0.00 0.00 58 1016.3
20260509132541 72 172 0.0 6.0 0.00 0.00 0.00 56 1016.4
20260509132031 72 138 1.0 6.0 0.00 0.00 0.00 58 1016.5
20260509131535 72 152 0.0 1.0 0.00 0.00 0.00 57 1016.6
20260509131040 71 152 0.0 8.0 0.00 0.00 0.00 59 1016.7
20260509130601 71 74 1.0 8.0 0.00 0.00 0.00 59 1016.7
20260509130033 70 139 5.0 8.0 0.00 0.04 0.00 59 1016.7
20260509125538 70 64 0.0 8.0 0.00 0.04 0.00 60 1016.8
20260509125036 70 141 3.0 9.0 0.00 0.04 0.00 60 1016.8
20260509124600 70 83 1.0 11.0 0.00 0.04 0.00 59 1016.9
20260509124051 70 160 1.0 8.0 0.00 0.04 0.00 61 1016.9
20260509123545 70 125 0.0 9.0 0.00 0.04 0.00 60 1017.0
20260509123044 70 122 0.0 9.0 0.00 0.04 0.00 60 1017.0
20260509122545 70 142 1.0 8.0 0.00 0.04 0.00 62 1017.0
20260509122054 70 119 1.0 8.0 0.00 0.04 0.00 60 1017.1
20260509121538 70 149 3.0 8.0 0.00 0.04 0.00 59 1017.1
20260509121120 70 135 0.0 3.0 0.00 0.04 0.00 62 1017.1
20260509120535 70 136 0.0 13.0 0.00 0.04 0.00 62 1017.1
20260509120053 70 133 7.0 13.0 0.00 0.08 0.00 60 1017.1
20260509115535 71 151 0.0 10.0 0.00 0.08 0.00 63 1017.1
20260509115034 70 142 2.0 8.0 0.00 0.08 0.00 63 1017.1
20260509114539 70 112 2.0 10.0 0.00 0.08 0.00 61 1017.2
20260509114031 70 143 3.0 10.0 0.00 0.08 0.00 61 1017.2
20260509113535 70 127 2.0 11.0 0.00 0.08 0.00 60 1017.2
20260509113045 70 137 7.0 11.0 0.00 0.08 0.00 60 1017.2
20260509112547 70 145 3.0 11.0 0.00 0.08 0.00 63 1017.3
20260509112059 71 132 4.0 11.0 0.00 0.08 0.00 61 1017.3
20260509111543 71 85 2.0 8.0 0.00 0.08 0.00 61 1017.3
20260509111033 70 168 3.0 8.0 0.00 0.08 0.00 64 1017.4
20260509110534 70 140 4.0 9.0 0.00 0.08 0.00 63 1017.5
20260509110042 70 114 4.0 9.0 0.00 0.08 0.00 63 1017.4
20260509105543 70 146 6.0 9.0 0.00 0.08 0.00 63 1017.4
20260509105053 70 56 0.0 3.0 0.00 0.08 0.00 64 1017.5
20260509104536 69 43 0.0 9.0 0.00 0.08 0.00 65 1017.6
20260509104045 69 177 4.0 9.0 0.00 0.08 0.00 65 1017.6
20260509103547 69 139 0.0 8.0 0.00 0.08 0.00 66 1017.7
20260509103059 69 104 1.0 8.0 0.00 0.08 0.00 67 1017.7
20260509102535 69 168 1.0 6.0 0.00 0.08 0.00 68 1017.8
20260509102040 69 335 0.0 10.0 0.00 0.08 0.00 66 1017.9
20260509101604 69 142 2.0 10.0 0.00 0.08 0.00 68 1017.9
20260509101038 68 117 2.0 7.0 0.00 0.08 0.00 69 1017.9
20260509100541 68 155 1.0 7.0 0.00 0.08 0.00 68 1018.0
20260509100116 68 177 3.0 9.0 0.00 0.08 0.00 68 1018.0
20260509095545 68 133 5.0 9.0 0.00 0.08 0.00 67 1018.1
20260509095034 68 153 0.0 7.0 0.00 0.08 0.00 69 1018.1
20260509094539 68 125 0.0 6.0 0.00 0.08 0.00 67 1018.2
20260509094047 68 118 0.0 6.0 0.00 0.08 0.00 70 1018.2
20260509093551 68 181 0.0 6.0 0.00 0.08 0.00 69 1018.2
20260509093040 67 65 0.0 6.0 0.00 0.08 0.00 68 1018.2
20260509092545 67 149 3.0 6.0 0.00 0.08 0.00 71 1018.2
20260509092036 67 129 1.0 4.0 0.00 0.08 0.00 71 1018.2
20260509091541 67 125 0.0 6.0 0.00 0.08 0.00 70 1018.3
20260509091051 67 97 3.0 8.0 0.00 0.08 0.00 70 1018.3
20260509090538 67 113 4.0 8.0 0.00 0.08 0.00 69 1018.3
20260509090045 67 166 1.0 7.0 0.00 0.08 0.00 70 1018.2
20260509085605 67 99 1.0 5.0 0.00 0.08 0.00 71 1018.3
20260509085031 66 164 0.0 5.0 0.00 0.08 0.00 69 1018.3
20260509084534 66 130 0.0 4.0 0.00 0.08 0.00 69 1018.4
20260509084045 66 97 1.0 5.0 0.00 0.08 0.00 69 1018.4
20260509083547 66 158 0.0 5.0 0.00 0.08 0.00 71 1018.4
20260509083055 65 96 1.0 7.0 0.00 0.08 0.00 71 1018.4
20260509082530 65 128 3.0 7.0 0.00 0.08 0.00 69 1018.4
20260509082039 65 133 0.0 0.0 0.00 0.08 0.00 69 1018.4
20260509081540 64 153 0.0 0.0 0.00 0.08 0.00 70 1018.4
20260509081058 64 159 0.0 5.0 0.00 0.08 0.00 71 1018.5
20260509080539 63 162 2.0 6.0 0.00 0.08 0.00 70 1018.6
20260509080031 63 160 3.0 6.0 0.00 0.08 0.00 72 1018.6
20260509075535 63 174 0.0 3.0 0.00 0.08 0.00 73 1018.6
20260509075046 63 170 1.0 7.0 0.00 0.08 0.00 75 1018.5
20260509074605 62 152 2.0 7.0 0.00 0.08 0.00 78 1018.4
20260509074033 62 152 1.0 4.0 0.00 0.08 0.00 76 1018.4
20260509073535 62 158 2.0 5.0 0.00 0.08 0.00 76 1018.4
20260509073044 61 164 2.0 5.0 0.00 0.08 0.00 75 1018.5
20260509072609 61 328 0.0 0.0 0.00 0.08 0.00 76 1018.5
20260509072038 61 327 0.0 0.0 0.00 0.08 0.00 76 1018.4
20260509071538 61 327 0.0 0.0 0.00 0.08 0.00 75 1018.5
20260509071044 61 327 0.0 0.0 0.00 0.08 0.00 77 1018.4
20260509070548 61 327 0.0 0.0 0.00 0.08 0.00 77 1018.5
20260509070033 60 326 0.0 0.0 0.00 0.08 0.00 77 1018.6
20260509065538 60 326 0.0 0.0 0.00 0.08 0.00 77 1018.5
20260509065057 60 327 0.0 0.0 0.00 0.08 0.00 76 1018.5
20260509064531 59 327 0.0 0.0 0.00 0.08 0.00 78 1018.5
20260509064038 59 327 0.0 0.0 0.00 0.08 0.00 78 1018.5
20260509063545 59 326 0.0 0.0 0.00 0.08 0.00 80 1018.5
20260509063034 59 326 0.0 1.0 0.00 0.08 0.00 81 1018.5
20260509062538 60 326 0.0 0.0 0.00 0.08 0.00 82 1018.6
20260509062043 59 326 0.0 0.0 0.00 0.08 0.00 82 1018.6
20260509061607 60 326 0.0 0.0 0.00 0.08 0.00 80 1018.6
20260509061035 60 326 0.0 0.0 0.00 0.08 0.00 80 1018.5
20260509060556 59 326 0.0 0.0 0.00 0.08 0.00 81 1018.5
20260509060043 59 327 0.0 0.0 0.00 0.08 0.00 81 1018.6
20260509055603 59 326 0.0 0.0 0.00 0.08 0.00 83 1018.5
20260509055033 58 326 0.0 0.0 0.00 0.08 0.00 83 1018.4
20260509054533 58 327 0.0 0.0 0.00 0.08 0.00 85 1018.3
20260509054042 57 326 0.0 0.0 0.00 0.08 0.00 86 1018.4
20260509053607 56 327 0.0 0.0 0.00 0.08 0.00 86 1018.3
20260509053054 55 326 0.0 0.0 0.00 0.08 0.00 86 1018.3
20260509052531 55 327 0.0 0.0 0.00 0.08 0.00 86 1018.2
20260509052106 55 326 0.0 0.0 0.00 0.08 0.00 86 1018.2
20260509051548 54 326 0.0 0.0 0.00 0.08 0.00 86 1018.2
20260509051036 54 326 0.0 0.0 0.00 0.08 0.00 86 1018.1
20260509050541 54 326 0.0 0.0 0.00 0.08 0.00 85 1018.1
20260509050056 54 326 0.0 0.0 0.00 0.08 0.00 86 1018.2
20260509045530 54 327 0.0 0.0 0.00 0.08 0.00 86 1018.1
20260509045038 54 326 0.0 0.0 0.00 0.08 0.00 85 1018.2
20260509044538 54 326 0.0 0.0 0.00 0.08 0.00 84 1018.1
20260509044048 54 326 0.0 0.0 0.00 0.08 0.00 84 1018.1
20260509043610 53 326 0.0 0.0 0.00 0.08 0.00 84 1018.0
20260509043039 53 327 0.0 0.0 0.00 0.08 0.00 84 1018.0
20260509042531 53 327 0.0 0.0 0.00 0.08 0.00 84 1018.0
20260509042039 54 327 0.0 0.0 0.00 0.08 0.00 84 1018.0
20260509041544 54 327 0.0 0.0 0.00 0.08 0.00 84 1018.0
20260509041034 54 327 0.0 0.0 0.00 0.08 0.00 83 1018.0
20260509040539 54 326 0.0 0.0 0.00 0.08 0.00 83 1017.9
20260509040031 54 326 0.0 0.0 0.00 0.08 0.00 83 1018.0
20260509035534 54 326 0.0 0.0 0.00 0.08 0.00 84 1017.9
20260509035044 54 326 0.0 0.0 0.00 0.08 0.00 84 1017.9
20260509034546 53 326 0.0 0.0 0.00 0.08 0.00 84 1017.9
20260509034032 54 326 0.0 0.0 0.00 0.08 0.00 82 1017.8
20260509033537 54 327 0.0 0.0 0.00 0.08 0.00 82 1017.9
20260509033048 54 327 0.0 0.0 0.00 0.08 0.00 83 1017.8
20260509032531 53 326 0.0 0.0 0.00 0.08 0.00 83 1017.8
20260509032038 54 327 0.0 0.0 0.00 0.08 0.00 83 1017.8
20260509031539 54 327 0.0 0.0 0.00 0.08 0.00 83 1017.8
20260509031032 54 326 0.0 0.0 0.00 0.08 0.00 82 1017.7
20260509030536 54 327 0.0 0.0 0.00 0.08 0.00 81 1017.7
20260509030040 55 326 0.0 0.0 0.00 0.08 0.00 81 1017.8
20260509025544 55 326 0.0 0.0 0.00 0.08 0.00 81 1017.8
20260509025036 54 326 0.0 0.0 0.00 0.08 0.00 82 1017.8
20260509024539 54 326 0.0 0.0 0.00 0.08 0.00 82 1017.7
20260509024100 54 326 0.0 0.0 0.00 0.08 0.00 82 1017.7
20260509023543 54 327 0.0 0.0 0.00 0.08 0.00 82 1017.7
20260509023034 54 326 0.0 0.0 0.00 0.08 0.00 82 1017.7
20260509022540 55 326 0.0 0.0 0.00 0.08 0.00 81 1017.7
20260509022031 55 326 0.0 0.0 0.00 0.08 0.00 81 1017.7
20260509021536 56 326 0.0 0.0 0.00 0.08 0.00 80 1017.7
20260509021039 56 326 0.0 0.0 0.00 0.08 0.00 79 1017.6
20260509020603 56 326 0.0 0.0 0.00 0.08 0.00 78 1017.6
20260509020055 56 326 0.0 0.0 0.00 0.08 0.00 78 1017.6
20260509015600 56 327 0.0 0.0 0.00 0.08 0.00 77 1017.7
20260509015032 56 326 0.0 5.0 0.00 0.08 0.00 77 1017.6
20260509014536 56 327 2.0 5.0 0.00 0.08 0.00 78 1017.5
20260509014031 56 328 3.0 5.0 0.00 0.08 0.00 79 1017.6
20260509013533 55 330 3.0 5.0 0.00 0.08 0.00 81 1017.7
20260509013037 54 335 1.0 4.0 0.00 0.08 0.00 84 1017.8
20260509012542 54 335 0.0 0.0 0.00 0.08 0.00 85 1017.7
20260509012054 54 335 0.0 0.0 0.00 0.08 0.00 85 1017.6
20260509011530 54 335 0.0 0.0 0.00 0.08 0.00 85 1017.6
20260509011102 54 335 0.0 0.0 0.00 0.08 0.00 85 1017.6
20260509010545 54 335 0.0 0.0 0.00 0.08 0.00 85 1017.6
20260509010058 54 335 0.0 0.0 0.00 0.08 0.00 85 1017.7
20260509005534 54 335 0.0 0.0 0.00 0.08 0.00 85 1017.7
20260509005038 55 335 0.0 0.0 0.00 0.08 0.00 85 1017.7
20260509004544 55 335 0.0 0.0 0.00 0.08 0.00 85 1017.8
20260509004035 55 335 0.0 0.0 0.00 0.08 0.00 86 1017.8
20260509003540 55 335 0.0 0.0 0.00 0.08 0.00 86 1017.8
20260509003101 55 335 0.0 0.0 0.00 0.08 0.00 85 1017.9
20260509002544 55 335 0.0 0.0 0.00 0.08 0.00 83 1017.9
20260509002038 55 335 0.0 0.0 0.00 0.08 0.00 84 1017.9
20260509001534 55 335 0.0 0.0 0.00 0.08 0.00 83 1017.8
20260509001037 55 335 0.0 0.0 0.00 0.08 0.00 82 1017.8
20260509000541 56 335 0.0 0.0 0.00 0.08 0.00 81 1017.9
20260509000034 56 335 0.0 0.0 0.00 0.08 0.00 80 1017.8
20260508235538 56 335 0.0 0.0 0.00 0.08 0.00 80 1017.8
20260508235058 56 335 0.0 0.0 0.00 0.08 0.00 80 1017.9
20260508234534 56 335 0.0 0.0 0.00 0.08 0.00 81 1017.9
20260508234044 56 335 0.0 0.0 0.00 0.08 0.00 80 1018.0
20260508233548 56 335 0.0 0.0 0.00 0.08 0.00 81 1017.9
20260508233106 55 335 0.0 0.0 0.00 0.08 0.00 82 1017.9
20260508232549 55 335 0.0 4.0 0.00 0.08 0.00 82 1018.0
20260508232036 55 335 1.0 4.0 0.00 0.08 0.00 84 1018.0
20260508231541 54 337 1.0 4.0 0.00 0.08 0.00 85 1018.0
20260508231052 54 337 0.0 0.0 0.00 0.08 0.00 84 1018.0
20260508230530 54 337 0.0 0.0 0.00 0.08 0.00 84 1018.0
20260508230040 54 337 0.0 0.0 0.00 0.08 0.00 85 1018.0
20260508225544 54 337 0.0 0.0 0.00 0.08 0.00 84 1017.9
20260508225058 55 337 0.0 0.0 0.00 0.08 0.00 84 1018.0
20260508224533 55 337 0.0 0.0 0.00 0.08 0.00 84 1017.9
20260508224043 55 337 0.0 0.0 0.00 0.08 0.00 85 1017.9
20260508223544 54 337 0.0 0.0 0.00 0.08 0.00 85 1017.8
20260508223034 55 337 0.0 0.0 0.00 0.08 0.00 85 1017.8
20260508222538 55 337 0.0 1.0 0.00 0.08 0.00 85 1017.8
20260508222048 55 337 0.0 2.0 0.00 0.08 0.00 86 1017.8
20260508221548 54 337 0.0 4.0 0.00 0.08 0.00 87 1017.7
20260508221040 54 339 1.0 4.0 0.00 0.08 0.00 87 1017.7
20260508220544 54 346 0.0 2.0 0.00 0.08 0.00 87 1017.7
20260508220054 54 346 0.0 2.0 0.00 0.08 0.02 88 1017.7
20260508215545 54 346 0.0 0.0 0.00 0.08 0.02 88 1017.7
20260508215036 55 347 0.0 0.0 0.00 0.08 0.02 87 1017.7
20260508214540 55 347 0.0 0.0 0.00 0.08 0.02 86 1017.7
20260508214033 56 346 0.0 0.0 0.00 0.08 0.02 86 1017.6
20260508213553 56 347 0.0 0.0 0.00 0.08 0.02 85 1017.6